Weather History for Erzurum, Turkey

Change the Weather History Date:

Tuesday, January 8, 2013

  Actual Average Record
Temperature  
Mean Temperature 16 °F -  
Max Temperature 23 °F 26 °F 42 °F (1997)
Min Temperature 10 °F 12 °F -25 °F (2005)
Degree Days  
Heating Degree Days 48    
Moisture  
Dew Point 18 °F    
Average Humidity 95    
Maximum Humidity 100    
Minimum Humidity 86    
Precipitation  
Precipitation 0.08 in 0.03 in - ()
Sea Level Pressure  
Sea Level Pressure 29.55 in    
Wind  
Wind Speed 6 mph ()    
Max Wind Speed 14 mph    
Max Gust Speed -    
Visibility 3.8 miles    
Events Snow    
Averages and records for this station are not official NWS values.
T = Trace of Precipitation, MM = Missing Value Source: Averaged Metar Reports

Daily Weather History Graph

Daily Weather History Graph

Search for Another Location

Airport:

Trip Planner

Search our weather history database for the weather conditions in past years. The results will help you decide how hot, cold, wet, or windy it might be!

Date:

Astronomy

Jan. 08, 2013 Rise Set
Actual Time 6:37 AM EET 4:07 PM EET
Civil Twilight 6:06 AM EET 4:37 PM EET
Nautical Twilight 5:33 AM EET 5:11 PM EET
Astronomical Twilight 5:00 AM EET 5:43 PM EET
Moon 2:45 AM EET (1/8) 12:49 PM EET (1/8)
Length of Visible Light 10h 30m
Length of Day
9h 30m
Waning Crescent, 16% of the Moon is Illuminated
Jan 8
Waning Crescent
Jan 11
New
Jan 19
First Quarter
Jan 27
Full
Feb 3
Last Quarter

Hourly Weather History & Observations

Time (EET) Temp. Windchill Dew Point Humidity Pressure Visibility Wind Dir Wind Speed Gust Speed Precip Events Conditions
12:20 AM 24.8 °F 15.3 °F 24.8 °F 100% 29.42 in 3.7 mi WSW 9.2 mph - N/A   Mostly Cloudy
12:50 AM 24.8 °F 12.9 °F 24.8 °F 100% 29.44 in 3.7 mi West 13.8 mph - N/A   Mostly Cloudy
1:20 AM 23.0 °F 12.4 °F 23.0 °F 100% 29.44 in 3.7 mi WSW 10.4 mph - N/A   Mostly Cloudy
1:50 AM 23.0 °F 13.1 °F 23.0 °F 100% 29.44 in 3.7 mi West 9.2 mph - N/A   Mostly Cloudy
2:00 AM 23 °F - 23 °F 99%  in 4 mi West 9.2 mph - -   Mist
2:20 AM 23.0 °F 14.7 °F 23.0 °F 100% 29.44 in 3.7 mi WSW 6.9 mph - N/A Snow Light Snow
2:50 AM 23.0 °F 15.8 °F 21.2 °F 93% 29.47 in 3.7 mi WSW 5.8 mph - N/A   Mostly Cloudy
3:50 AM 19.4 °F 14.3 °F 17.6 °F 93% 29.47 in 3.7 mi Variable 3.5 mph - N/A   Mostly Cloudy
4:20 AM 21.2 °F 12.6 °F 19.4 °F 93% 29.47 in 3.7 mi WSW 6.9 mph - N/A   Mostly Cloudy
4:50 AM 19.4 °F 7.2 °F 17.6 °F 93% 29.47 in 3.7 mi West 11.5 mph - N/A   Mostly Cloudy
5:20 AM 19.4 °F 8.6 °F 17.6 °F 93% 29.47 in 3.7 mi West 9.2 mph - N/A   Mostly Cloudy
5:50 AM 17.6 °F 5.7 °F 15.8 °F 93% 29.50 in 3.7 mi West 10.4 mph - N/A   Mostly Cloudy
6:20 AM 17.6 °F 8.2 °F 15.8 °F 93% 29.50 in 3.7 mi West 6.9 mph - N/A   Mostly Cloudy
6:50 AM 15.8 °F - 14.0 °F 93% 29.53 in 3.7 mi NNW 2.3 mph - N/A   Mostly Cloudy
7:20 AM 12.2 °F 4.3 °F 12.2 °F 100% 29.53 in 5.0 mi SE 4.6 mph - N/A   Mostly Cloudy
7:50 AM 12.2 °F - 12.2 °F 100% 29.53 in 5.0 mi Variable 2.3 mph - N/A   Mostly Cloudy
8:00 AM 12 °F - 12 °F 100%  in 5 mi ESE 2.3 mph - -   Mist
8:20 AM 14.0 °F 5.1 °F 12.2 °F 93% 29.56 in 5.0 mi NE 5.8 mph - N/A   Scattered Clouds
8:50 AM 19.4 °F - 19.4 °F 100% 29.56 in 6.2 mi Variable 2.3 mph - N/A   Scattered Clouds
9:20 AM 19.4 °F - 19.4 °F 100% 29.56 in 6.2 mi Variable 2.3 mph - N/A   Scattered Clouds
9:50 AM 21.2 °F 12.6 °F 21.2 °F 100% 29.56 in 6.2 mi WSW 6.9 mph - N/A   Scattered Clouds
10:20 AM 21.2 °F 10.9 °F 19.4 °F 93% 29.59 in 6.2 mi WSW 9.2 mph - N/A   Scattered Clouds
10:50 AM 21.2 °F 16.4 °F 17.6 °F 86% 29.56 in 6.2 mi WNW 3.5 mph - N/A   Mostly Cloudy
11:20 AM 21.2 °F 16.4 °F 19.4 °F 93% 29.56 in - SE 3.5 mph - N/A Snow Light Snow
11:50 AM 19.4 °F 14.3 °F 19.4 °F 100% 29.56 in 1.4 mi SE 3.5 mph - N/A Snow Light Snow
12:20 PM 21.2 °F - 19.4 °F 93% 29.56 in 0.3 mi Variable 1.2 mph - N/A Snow Heavy Snow
12:50 PM 21.2 °F 16.4 °F 19.4 °F 93% 29.56 in 0.7 mi WNW 3.5 mph - N/A Snow Heavy Snow
1:20 PM 21.2 °F 10.9 °F 19.4 °F 93% 29.56 in 1.1 mi WNW 9.2 mph - N/A Snow Heavy Snow
1:50 PM 19.4 °F 10.4 °F 19.4 °F 100% 29.59 in 1.1 mi West 6.9 mph - N/A Snow Heavy Snow
2:00 PM 20 °F - 20 °F 100%  in 1 mi West 6.9 mph - - Snow Heavy Snow
2:20 PM 21.2 °F 16.4 °F 19.4 °F 93% 29.59 in 0.4 mi WSW 3.5 mph - N/A Snow Heavy Snow
2:50 PM 19.4 °F - 19.4 °F 100% 29.59 in 2.8 mi Variable 2.3 mph - N/A Snow Light Snow
3:20 PM 21.2 °F - 19.4 °F 93% 29.59 in 1.2 mi Calm Calm - N/A Snow Light Snow
3:50 PM 19.4 °F 14.3 °F 19.4 °F 100% 29.59 in 0.2 mi SE 3.5 mph - N/A Snow Heavy Snow
4:20 PM 19.4 °F 14.3 °F 17.6 °F 93% 29.62 in 0.9 mi ENE 3.5 mph - N/A Snow Heavy Snow
4:50 PM 15.8 °F 10.2 °F 15.8 °F 100% 29.62 in 2.2 mi ESE 3.5 mph - N/A Snow Light Snow
5:50 PM 17.6 °F 10.7 °F 15.8 °F 93% 29.65 in - WSW 4.6 mph - N/A   Mostly Cloudy
6:20 PM 17.6 °F 12.3 °F 15.8 °F 93% 29.65 in 2.8 mi Variable 3.5 mph - N/A   Mostly Cloudy
6:50 PM 19.4 °F 11.5 °F 15.8 °F 86% 29.65 in 4.3 mi West 5.8 mph - N/A   Mostly Cloudy
7:20 PM 19.4 °F 14.3 °F 15.8 °F 86% 29.65 in 6.2 mi West 3.5 mph - N/A   Mostly Cloudy
7:50 PM 19.4 °F - 15.8 °F 86% 29.65 in 6.2 mi Variable 2.3 mph - N/A   Mostly Cloudy
8:00 PM 19 °F - 18 °F 94%  in 12 mi SW 2.3 mph - -   Partly Cloudy
8:20 PM 19.4 °F - 15.8 °F 86% 29.65 in 6.2 mi Variable 2.3 mph - N/A   Mostly Cloudy
8:50 PM 17.6 °F 9.3 °F 15.8 °F 93% 29.62 in 6.2 mi East 5.8 mph - N/A Snow Light Snow
9:20 PM 17.6 °F 8.2 °F 15.8 °F 93% 29.62 in 6.2 mi East 6.9 mph - N/A Snow Light Snow
9:50 PM 17.6 °F 8.2 °F 15.8 °F 93% 29.62 in 2.5 mi ENE 6.9 mph - N/A Snow Light Snow
10:20 PM 17.6 °F 7.3 °F 17.6 °F 100% 29.59 in 3.7 mi NE 8.1 mph - N/A Snow Light Snow
10:50 PM 17.6 °F 7.3 °F 15.8 °F 93% 29.59 in 3.7 mi ENE 8.1 mph - N/A Snow Light Snow
11:20 PM 17.6 °F 7.3 °F 15.8 °F 93% 29.56 in 2.5 mi ENE 8.1 mph - N/A Snow Light Snow
11:50 PM 17.6 °F 7.3 °F 15.8 °F 93% 29.53 in 4.3 mi NE 8.1 mph - N/A Snow Light Snow